Weather History for Clarion, IA

Change the Weather History Date:

Monday, October 22, 2012

  Actual Average Record
Temperature  
Mean Temperature 66 °F -  
Max Temperature 78 °F 58 °F 80 °F (1963)
Min Temperature 55 °F 35 °F 12 °F (1976)
Cooling Degree Days 2    
Growing Degree Days 16 (Base 50)    
Moisture  
Dew Point 58 °F    
Average Humidity 81    
Maximum Humidity 94    
Minimum Humidity 47    
Precipitation  
Precipitation 0.00 in - - ()
Sea Level Pressure  
Sea Level Pressure 29.82 in    
Wind  
Wind Speed 7 mph (ENE)    
Max Wind Speed 14 mph    
Max Gust Speed 17 mph    
Visibility 8 miles    
Events Rain    
Averages and records for this station are not official NWS values.
T = Trace of Precipitation, MM = Missing Value Source: NWS Daily Summary

Daily Weather History Graph

Daily Weather History Graph

Search for Another Location

Airport:

Trip Planner

Search our weather history database for the weather conditions in past years. The results will help you decide how hot, cold, wet, or windy it might be!

Date:

Astronomy

Oct. 22, 2012 Rise Set
Actual Time 7:37 AM CDT 6:20 PM CDT
Civil Twilight 7:08 AM CDT 6:49 PM CDT
Nautical Twilight 6:35 AM CDT 7:22 PM CDT
Astronomical Twilight 6:02 AM CDT 7:55 PM CDT
Moon 2:37 PM CDT (10/22) 12:15 AM CDT (10/22)
Length of Visible Light 11h 41m
Length of Day
10h 43m
First Quarter, 56% of the Moon is Illuminated
Oct 22
First Quarter
Oct 29
Full
Nov 6
Last Quarter
Nov 13
New
Nov 20
First Quarter

Hourly Weather History & Observations

Time (CDT) Temp. Dew Point Humidity Pressure Visibility Wind Dir Wind Speed Gust Speed Precip Events Conditions
12:15 AM 60.8 °F 53.6 °F 77% 29.84 in 10.0 mi ESE 12.7 mph - N/A   Overcast
12:55 AM 59.0 °F 53.6 °F 82% 29.84 in 10.0 mi ESE 9.2 mph - N/A   Mostly Cloudy
1:15 AM 60.8 °F 55.4 °F 82% 29.85 in 10.0 mi WNW 5.8 mph - N/A   Overcast
1:35 AM 60.8 °F 55.4 °F 82% 29.85 in 10.0 mi North 4.6 mph - N/A   Overcast
1:55 AM 60.8 °F 55.4 °F 82% 29.84 in 10.0 mi North 4.6 mph - N/A   Overcast
2:15 AM 59.0 °F 55.4 °F 88% 29.84 in 10.0 mi ENE 5.8 mph - N/A   Overcast
2:35 AM 59.0 °F 55.4 °F 88% 29.84 in 10.0 mi NNE 5.8 mph - N/A   Overcast
2:55 AM 59.0 °F 55.4 °F 88% 29.84 in 10.0 mi ENE 8.1 mph - N/A   Overcast
3:15 AM 59.0 °F 55.4 °F 88% 29.84 in 10.0 mi NE 4.6 mph - N/A   Overcast
3:55 AM 57.2 °F 55.4 °F 94% 29.83 in 10.0 mi ENE 3.5 mph - N/A   Overcast
4:15 AM 57.2 °F 55.4 °F 94% 29.83 in 10.0 mi NE 6.9 mph - N/A   Overcast
4:35 AM 57.2 °F 53.6 °F 88% 29.83 in 10.0 mi East 6.9 mph - N/A   Mostly Cloudy
4:55 AM 57.2 °F 53.6 °F 88% 29.82 in 10.0 mi East 8.1 mph - N/A   Scattered Clouds
5:15 AM 55.4 °F 53.6 °F 94% 29.82 in 10.0 mi ENE 6.9 mph - N/A   Scattered Clouds
5:35 AM 55.4 °F 53.6 °F 94% 29.82 in 7.0 mi NE 5.8 mph - N/A   Scattered Clouds
5:55 AM 55.4 °F 53.6 °F 94% 29.82 in 7.0 mi ENE 6.9 mph - N/A   Scattered Clouds
6:15 AM 57.2 °F 53.6 °F 88% 29.81 in 10.0 mi ENE 9.2 mph - N/A   Mostly Cloudy
6:35 AM 57.2 °F 53.6 °F 88% 29.82 in 7.0 mi East 9.2 mph - N/A   Scattered Clouds
7:15 AM 57.2 °F 55.4 °F 94% 29.83 in 10.0 mi East 5.8 mph - N/A   Mostly Cloudy
7:35 AM 57.2 °F 53.6 °F 88% 29.84 in 7.0 mi Calm Calm - N/A   Scattered Clouds
7:55 AM 55.4 °F 53.6 °F 94% 29.83 in 7.0 mi North 6.9 mph - N/A   Scattered Clouds
8:15 AM 55.4 °F 53.6 °F 94% 29.84 in 7.0 mi NNW 5.8 mph - N/A   Clear
8:35 AM 55.4 °F 53.6 °F 94% 29.84 in 7.0 mi North 6.9 mph - N/A   Clear
8:55 AM 55.4 °F 53.6 °F 94% 29.86 in 7.0 mi NNE 4.6 mph - N/A   Clear
9:15 AM 55.4 °F 53.6 °F 94% 29.86 in 7.0 mi NNE 6.9 mph - N/A   Clear
9:35 AM 57.2 °F 55.4 °F 94% 29.85 in 7.0 mi NE 6.9 mph - N/A   Mostly Cloudy
9:55 AM 59.0 °F 55.4 °F 88% 29.86 in 7.0 mi NE 4.6 mph - N/A   Overcast
10:15 AM 60.8 °F 55.4 °F 82% 29.85 in 7.0 mi NNE 6.9 mph - N/A   Overcast
10:35 AM 62.6 °F 57.2 °F 82% 29.85 in 7.0 mi NE 8.1 mph - N/A   Overcast
10:55 AM 64.4 °F 57.2 °F 77% 29.84 in 7.0 mi NE 6.9 mph - N/A   Mostly Cloudy
11:15 AM 64.4 °F 57.2 °F 77% 29.84 in 7.0 mi NE 3.5 mph - N/A   Clear
11:35 AM 66.2 °F 59.0 °F 78% 29.84 in 10.0 mi NE 6.9 mph - N/A   Scattered Clouds
11:55 AM 66.2 °F 59.0 °F 78% 29.85 in 10.0 mi ENE 3.5 mph - N/A   Mostly Cloudy
12:15 PM 66.2 °F 59.0 °F 78% 29.84 in 10.0 mi Calm Calm - N/A   Overcast
12:35 PM 69.8 °F 60.8 °F 73% 29.84 in 10.0 mi Calm Calm - N/A   Mostly Cloudy
12:55 PM 71.6 °F 60.8 °F 69% 29.83 in 7.0 mi Calm Calm - N/A   Scattered Clouds
1:15 PM 71.6 °F 60.8 °F 69% 29.83 in 7.0 mi NNW 3.5 mph - N/A   Clear
1:35 PM 73.4 °F 60.8 °F 65% 29.82 in 10.0 mi Calm Calm - N/A   Clear
1:55 PM 73.4 °F 60.8 °F 65% 29.82 in 7.0 mi Calm Calm - N/A   Clear
2:15 PM 73.4 °F 59.0 °F 61% 29.81 in 10.0 mi Calm Calm - N/A   Clear
2:35 PM 75.2 °F 60.8 °F 61% 29.80 in 4.0 mi NNE 5.8 mph - N/A   Haze
2:55 PM 75.2 °F 60.8 °F 61% 29.80 in 4.0 mi NE 4.6 mph - N/A   Haze
3:15 PM 75.2 °F 60.8 °F 61% 29.79 in 7.0 mi NE 4.6 mph - N/A   Clear
3:35 PM 77.0 °F 60.8 °F 57% 29.79 in 7.0 mi Calm Calm - N/A   Scattered Clouds
3:55 PM 75.2 °F 60.8 °F 61% 29.79 in 1.5 mi NE 6.9 mph - N/A   Haze
4:15 PM 77.0 °F 57.2 °F 50% 29.79 in 10.0 mi ESE 6.9 mph - N/A   Scattered Clouds
4:35 PM 78.8 °F 57.2 °F 47% 29.79 in 10.0 mi SSE 6.9 mph - N/A   Scattered Clouds
4:55 PM 75.2 °F 59.0 °F 57% 29.79 in 10.0 mi SE 4.6 mph - N/A   Scattered Clouds
5:15 PM 75.2 °F 59.0 °F 57% 29.80 in 10.0 mi SE 5.8 mph - N/A   Scattered Clouds
5:35 PM 73.4 °F 60.8 °F 65% 29.80 in 10.0 mi SE 6.9 mph - N/A   Mostly Cloudy
5:55 PM 73.4 °F 60.8 °F 65% 29.80 in 10.0 mi SE 8.1 mph - N/A   Mostly Cloudy
6:15 PM 71.6 °F 60.8 °F 69% 29.81 in 10.0 mi East 5.8 mph - N/A   Mostly Cloudy
6:35 PM 69.8 °F 60.8 °F 73% 29.81 in 5.0 mi ENE 10.4 mph - N/A   Haze
6:55 PM 66.2 °F 60.8 °F 83% 29.82 in 10.0 mi ENE 13.8 mph - N/A   Overcast
7:15 PM 64.4 °F 60.8 °F 88% 29.83 in 7.0 mi ENE 11.5 mph 16.1 mph N/A   Mostly Cloudy
7:35 PM 64.4 °F 60.8 °F 88% 29.84 in 7.0 mi East 9.2 mph - N/A   Mostly Cloudy
7:55 PM 64.4 °F 60.8 °F 88% 29.83 in 7.0 mi ENE 10.4 mph - N/A   Overcast
8:15 PM 64.4 °F 60.8 °F 88% 29.83 in 7.0 mi East 9.2 mph - N/A   Overcast
8:55 PM 64.4 °F 60.8 °F 88% 29.82 in 7.0 mi East 8.1 mph - N/A   Mostly Cloudy
9:15 PM 64.4 °F 60.8 °F 88% 29.81 in 7.0 mi East 8.1 mph - N/A   Mostly Cloudy
9:35 PM 64.4 °F 60.8 °F 88% 29.81 in 7.0 mi East 9.2 mph - N/A   Overcast
9:55 PM 64.4 °F 60.8 °F 88% 29.81 in 7.0 mi East 9.2 mph - N/A   Mostly Cloudy
10:15 PM 64.4 °F 60.8 °F 88% 29.81 in 7.0 mi East 9.2 mph - N/A   Overcast
10:35 PM 64.4 °F 62.6 °F 94% 29.80 in 7.0 mi East 10.4 mph - N/A   Overcast
10:55 PM 64.4 °F 62.6 °F 94% 29.79 in 7.0 mi East 10.4 mph - N/A   Overcast
11:15 PM 66.2 °F 62.6 °F 88% 29.80 in 5.0 mi East 11.5 mph 17.3 mph N/A   Overcast
11:35 PM 64.4 °F 62.6 °F 94% 29.80 in 4.0 mi East 10.4 mph - N/A Rain Light Rain